User: anonymous   Login
Location: Unspecified
(0.0000°N, 0.0000°E)
Time: 23:05:13
(UTC+00:00)
Language:

Kosmos-2218 - Orbit

View from above orbital plane
View from above orbital plane
View from above satellite
View from above satellite

Ground track
Ground track

The orbit data is extracted from the following two-line orbital elements,

1 22207U 92073A   24110.24835250  .00000107  00000-0  98797-4 0  9993
2 22207  82.9250 359.8003 0033410  35.4081  86.1417 13.72977602576673
Epoch (UTC): 19 April 2024 05:57:37
Eccentricity: 0.0033410
inclination: 82.9250°
perigee height: 964 km
apogee height: 1013 km
right ascension of ascending node: 359.8003°
argument of perigee: 35.4081°
revolutions per day: 13.72977602
mean anomaly at epoch: 86.1417°
orbit number at epoch: 57667

The dashed part of the orbit path shows where the satellite is in the earth's shadow,  

DLR